Temp
20 20 20 21 21 21 21 22 22 21 21 21 21 21 21 20 20 20 20 20 20 19 19 20 20 20 20 20 19 19 19 19 19 19 19 19 19 19 19 19 19 19 19 19 19 18 18 18 18 18 18 18 19 19 19 19 19 19 19 19 20 19 18 18 18 17 18 18 19 19 19 19 19 19 19 19 19 18 18 19 19 19 19 19 19
20 21 21 21 21 21 21 21 21 21 21 22 22 21 21 21 20 20 20 19 19 19 19 20 20 20 20 19 19 19 19 19 19 19 19 19 20 20 20 20 20 20 19 19 19 18 18 18 18 18 18 18 18 19 19 19 19 19 19 19 19 19 18 18 18 17 18 18 18 19 19 19 19 19 19 19 19 18 18 19 18 18 18 19 18
20 20 20 21 21 21 20 20 21 21 21 21 21 21 21 21 20 20 20 20 20 19 19 19 19 19 19 19 19 19 19 19 19 19 19 19 20 20 20 20 20 20 20 20 19 19 18 18 18 18 17 17 18 18 19 19 19 18 18 18 18 18 18 18 18 17 18 18 18 19 19 19 19 19 19 18 18 18 18 18 18 18 18 18 18
20 20 21 20 21 21 21 20 21 21 21 21 21 21 21 21 20 20 20 20 20 19 19 19 19 19 19 19 19 19 19 19 19 19 20 20 20 20 20 20 21 21 20 20 19 19 19 18 17 17 17 17 18 18 18 18 18 18 18 18 18 18 18 18 18 18 18 18 18 18 19 19 19 19 18 18 18 18 18 18 18 18 18 18 18
20 20 20 20 20 21 21 21 21 21 21 21 21 21 21 20 20 20 20 20 19 19 19 19 19 19 19 20 19 19 19 19 19 20 20 20 20 20 20 20 21 21 21 20 19 19 19 18 17 17 17 16 17 17 17 17 17 17 17 17 17 17 17 17 17 17 18 18 18 18 19 19 19 19 18 18 18 18 17 17 17 17 17 18 18
20 20 20 21 21 21 21 20 21 21 21 21 21 21 21 20 20 20 20 19 19 19 19 19 19 19 20 20 20 19 19 19 19 19 20 20 20 20 20 20 20 21 21 20 20 19 19 18 17 17 16 16 16 16 16 16 17 17 16 16 16 16 16 17 17 17 18 18 18 18 19 19 19 18 18 18 18 17 17 17 17 17 17 17 17
20 20 21 21 20 20 20 20 21 21 21 21 21 21 21 20 20 20 19 19 20 20 19 19 20 19 20 20 20 20 19 19 19 19 19 19 19 19 19 19 20 20 20 20 20 20 19 18 17 17 17 16 15 15 15 15 16 16 16 15 15 15 15 16 16 16 17 17 18 18 18 18 18 18 17 17 17 17 16 16 16 16 17 17 17
20 20 21 20 20 20 20 20 20 21 21 21 20 21 21 20 20 20 19 19 20 20 20 20 20 20 20 20 20 20 19 19 19 20 20 19 19 18 18 18 19 19 20 20 20 20 19 18 17 17 17 16 15 15 15 15 15 15 15 15 15 15 15 15 16 16 17 17 17 17 18 18 18 17 17 17 17 16 16 16 16 16 16 17 17
20 20 21 20 20 21 21 20 20 20 20 20 20 21 21 20 20 20 19 19 20 21 20 20 20 20 20 20 20 20 19 19 20 20 19 19 18 18 18 18 19 19 19 20 20 20 19 18 18 18 17 16 15 15 15 15 15 15 15 15 15 15 15 15 16 16 16 16 17 17 17 17 17 17 16 16 16 16 15 15 15 16 16 16 16
20 21 20 20 21 21 21 20 20 20 20 20 20 20 20 20 20 20 19 20 20 20 20 20 20 20 20 20 20 20 20 19 19 19 19 18 18 17 17 18 18 18 19 19 20 20 19 18 18 18 17 16 15 15 15 15 15 15 15 15 15 15 15 16 16 16 16 16 16 16 16 16 16 16 16 16 16 15 15 15 15 15 15 16 16
20 20 20 21 21 20 20 20 20 20 20 19 20 20 20 20 20 19 19 19 20 20 19 20 20 20 20 20 20 20 19 19 19 19 18 18 18 17 17 18 18 18 19 20 20 20 19 19 18 17 17 16 16 16 16 16 16 16 16 16 16 15 15 16 16 15 15 16 16 16 16 16 16 16 16 16 15 15 15 15 15 15 15 15 16
20 20 20 20 20 20 20 20 20 19 19 19 19 19 20 20 20 19 19 19 19 19 19 19 19 19 19 19 19 19 19 19 19 18 18 18 18 18 17 17 18 18 19 20 20 19 19 18 18 18 17 17 17 16 16 16 16 16 17 17 16 16 15 16 16 16 15 16 16 16 16 16 16 16 16 16 15 15 15 15 15 15 15 15 15
20 20 20 20 20 20 20 20 19 19 19 19 19 19 19 20 19 19 19 19 19 19 19 19 19 18 18 18 18 19 19 19 19 18 18 18 18 17 17 17 18 18 18 19 19 19 19 18 18 18 17 17 17 17 16 16 16 16 16 17 17 16 16 16 16 16 16 16 16 16 16 16 17 16 16 16 15 15 15 14 15 15 14 15 15
20 20 20 19 20 20 19 19 19 19 19 19 19 19 19 19 19 19 19 19 19 19 19 19 19 18 18 18 18 19 19 18 18 18 18 18 18 17 17 17 18 18 18 19 19 19 18 18 18 18 18 18 17 17 16 16 16 16 16 16 16 17 17 17 17 17 17 17 17 17 17 17 17 16 16 16 15 15 15 15 15 15 15 15 16
19 20 19 19 19 19 19 19 19 19 19 19 19 19 19 19 19 19 19 19 19 19 19 19 19 19 18 18 18 19 19 18 18 18 18 18 17 17 17 17 18 18 18 19 19 18 18 18 18 18 18 18 18 17 17 16 16 16 16 16 16 17 17 17 17 17 17 17 17 17 16 16 16 16 16 16 15 15 15 15 15 15 15 16 17
19 19 19 19 19 19 19 19 19 19 18 18 18 19 19 19 19 19 19 19 19 19 19 19 19 19 19 18 18 19 19 18 18 18 18 18 17 17 17 18 18 18 18 19 19 19 18 18 18 18 18 18 18 17 17 16 16 16 16 16 16 16 17 18 18 18 17 17 17 17 16 16 16 16 16 16 16 15 15 15 16 16 16 16 17
19 19 19 19 19 19 19 19 19 18 18 18 18 19 19 19 19 19 19 19 20 20 19 19 19 19 19 19 19 19 19 19 18 18 18 18 17 17 17 18 18 18 18 19 19 19 19 18 18 18 18 18 18 18 17 17 16 16 16 16 16 16 17 18 18 18 17 17 17 17 16 16 16 16 17 17 16 16 15 15 15 16 16 16 16
19 19 19 19 19 19 19 19 19 18 18 19 19 19 19 19 19 19 19 19 19 20 20 19 19 20 19 19 19 19 19 19 18 18 18 18 17 17 17 18 18 18 18 19 19 19 19 19 18 18 18 18 18 18 17 17 16 16 15 16 16 16 17 17 18 17 17 16 16 16 16 16 16 17 17 17 17 16 15 15 15 16 16 16 16
19 19 19 19 19 19 18 18 19 18 18 19 19 19 19 19 19 19 19 19 19 19 19 19 20 20 20 19 19 19 19 19 18 18 18 18 18 17 17 18 18 19 19 19 19 19 19 19 19 18 18 18 18 17 17 17 17 16 16 16 16 16 16 17 17 17 16 16 16 16 16 17 17 17 17 17 17 16 16 16 16 17 17 16 16
19 19 19 19 19 19 19 19 19 19 18 19 19 19 19 19 18 18 18 19 19 19 19 19 20 20 19 19 19 19 19 19 18 18 18 18 18 18 17 17 18 18 19 19 19 19 19 19 19 19 19 18 18 18 17 17 17 17 16 16 16 16 16 17 17 16 16 16 16 16 16 16 17 17 18 18 18 17 17 17 17 17 16 16 16
19 19 19 19 19 19 19 19 19 19 18 18 18 19 19 19 18 18 18 18 19 19 19 19 19 19 19 19 19 19 19 19 19 18 18 18 18 18 18 17 18 18 19 19 19 19 19 19 19 19 19 18 18 18 18 18 17 17 17 16 16 17 16 16 16 16 15 15 15 16 16 16 16 17 18 18 18 18 18 17 17 16 16 15 15
20 19 19 19 19 19 19 19 19 19 18 18 18 18 18 18 18 18 18 18 19 19 19 19 19 19 18 18 19 19 19 19 19 19 18 18 18 18 18 18 18 18 18 18 18 19 19 19 19 19 19 19 18 18 18 18 18 17 17 17 17 17 16 16 16 15 15 15 15 15 16 16 16 17 18 18 18 18 17 17 16 16 16 16 15
19 19 19 19 19 19 19 19 19 19 18 18 18 18 18 18 18 18 18 18 19 19 19 19 19 18 18 18 18 19 19 19 19 19 19 19 18 18 18 18 18 18 18 18 18 18 18 19 19 19 19 18 18 18 18 18 17 17 17 17 17 17 16 16 16 15 15 15 15 15 15 16 16 17 17 18 18 18 17 17 17 16 16 16 16
19 19 19 19 19 19 19 19 19 19 18 18 18 18 18 18 18 18 18 18 18 18 19 19 18 18 18 18 18 19 19 19 19 19 19 19 19 19 18 18 18 18 18 18 18 18 18 18 18 18 18 18 18 18 18 17 17 17 17 17 17 17 16 16 15 15 15 15 15 15 15 16 16 17 17 18 18 18 18 17 17 16 16 16 16
19 19 19 19 19 19 19 19 19 19 18 18 18 18 18 18 18 18 18 18 18 18 18 18 18 18 18 18 19 19 19 19 19 19 19 19 19 19 19 19 19 18 18 18 18 18 18 18 18 18 18 18 18 18 18 18 17 17 17 17 17 16 16 15 15 15 15 15 15 16 16 16 17 17 18 18 18 18 18 17 17 17 17 16 16
19 19 19 19 19 19 19 19 19 19 18 18 18 18 18 18 18 18 18 18 18 18 18 18 19 19 19 19 19 19 19 19 19 19 19 19 19 19 19 19 19 18 18 18 18 18 18 18 18 18 18 18 18 18 18 18 18 18 17 17 17 16 16 15 15 15 15 15 15 16 16 17 17 18 18 18 18 18 18 17 17 17 17 16 16
19 19 19 18 18 19 19 19 19 19 18 18 18 18 18 18 18 18 18 18 18 18 19 19 19 19 19 19 19 20 20 19 19 19 19 19 19 19 19 18 18 18 18 18 18 18 18 18 18 18 18 18 18 18 18 18 18 17 17 17 17 17 17 16 16 15 15 16 16 16 17 17 17 18 18 17 17 18 18 17 17 17 17 16 16
19 19 19 19 19 19 19 19 19 19 19 19 19 19 19 19 19 19 19 19 19 19 19 19 19 19 19 19 20 20 20 20 20 20 19 19 19 19 18 18 18 18 18 18 18 18 17 17 17 17 17 17 18 18 18 18 18 18 18 17 17 17 17 17 16 16 16 16 16 16 17 17 17 17 17 17 17 18 18 18 17 17 16 16 16
19 19 19 19 19 19 19 19 19 19 19 19 19 19 19 19 19 20 19 19 19 19 19 20 19 19 19 19 20 20 20 20 20 19 19 19 19 19 19 19 18 18 18 18 18 18 18 17 17 17 17 18 18 18 18 19 19 18 18 18 18 17 17 17 16 16 16 16 16 16 17 17 17 17 17 17 17 18 18 18 18 17 17 16 16
20 20 20 20 20 20 20 20 19 19 19 19 19 19 19 19 19 20 19 19 19 19 19 19 19 19 19 19 19 19 19 19 19 19 19 19 19 19 19 19 19 18 18 18 18 18 17 17 17 17 18 18 18 19 19 19 19 19 18 18 18 17 17 17 17 17 17 17 17 17 17 17 17 17 17 17 18 18 18 18 18 18 17 17 16
20 20 19 20 20 20 20 20 20 20 20 20 20 19 20 20 20 20 20 19 19 19 19 19 19 19 19 19 19 19 19 19 19 19 19 19 19 19 19 19 19 18 18 18 17 17 17 17 17 18 18 18 19 19 19 20 20 20 19 19 18 17 17 17 17 17 18 18 18 18 18 18 18 18 18 18 18 18 18 19 19 18 18 17 17
20 19 19 20 21 21 21 21 21 20 20 20 20 20 20 20 20 20 20 20 20 20 19 19 19 19 19 19 18 18 19 19 19 19 19 19 19 19 19 19 18 18 18 17 17 17 17 16 17 18 18 18 19 19 19 20 20 20 20 20 19 18 18 18 17 18 18 19 19 19 19 19 19 18 18 18 18 18 18 19 19 19 18 18 18
20 19 19 20 21 21 21 21 21 21 20 20 20 20 21 20 20 20 20 20 20 20 20 20 20 20 19 19 19 19 19 20 20 20 20 20 20 19 19 19 18 18 18 17 16 16 16 16 17 17 18 18 19 19 19 20 20 20 20 20 20 20 19 19 18 18 18 19 19 19 19 19 19 19 19 19 18 18 18 19 19 19 19 18 18
20 21 21 21 21 21 21 21 21 21 21 20 20 21 20 20 21 21 21 20 20 20 20 20 20 20 20 20 20 20 20 20 20 20 20 20 20 20 19 19 19 18 18 17 17 16 16 16 17 17 18 18 19 19 19 20 20 20 20 20 19 19 19 19 19 18 18 18 18 18 19 19 19 19 19 19 19 19 18 19 19 19 19 19 19
20 21 22 22 21 21 21 21 21 21 21 21 21 21 20 21 21 20 20 20 20 20 20 20 20 20 20 20 21 21 21 21 21 20 20 20 20 20 19 19 19 19 18 18 18 17 17 18 18 18 18 19 19 19 19 20 20 20 19 19 18 17 17 18 17 18 18 17 17 18 19 19 19 19 19 19 19 19 19 19 19 19 19 19 19
21 21 22 22 21 21 21 21 21 21 21 21 20 20 20 21 21 21 21 21 20 20 21 21 21 21 21 21 21 21 21 21 21 21 21 21 20 20 19 19 19 18 18 18 18 18 18 18 18 17 18 18 18 18 18 18 18 18 17 17 17 17 17 17 16 17 17 17 16 17 18 18 18 19 19 19 19 19 19 19 19 19 19 19 19
21 22 22 21 21 21 21 21 21 21 21 20 20 20 20 21 21 21 21 21 21 21 21 21 22 22 22 22 21 21 21 21 21 21 21 21 20 20 20 20 19 18 18 18 18 18 18 17 17 17 17 17 17 17 17 17 17 17 16 16 17 17 16 16 16 16 17 16 16 16 17 18 18 18 18 18 19 19 19 19 19 18 19 19 19
21 22 21 21 21 21 21 21 21 21 21 20 20 20 21 21 21 21 21 21 21 21 21 22 22 22 22 22 21 21 22 21 21 21 21 21 21 21 20 19 17 16 16 16 16 17 17 17 17 17 17 17 17 17 17 17 17 16 16 16 16 16 15 15 16 16 16 16 16 16 16 17 17 17 17 18 18 19 19 18 18 19 19 19 19
21 21 21 21 20 20 21 21 21 21 21 21 20 21 21 21 21 21 21 21 21 22 22 22 22 22 22 22 21 21 22 21 21 21 21 20 20 19 17 16 16 16 16 16 16 17 17 17 18 17 17 17 17 17 16 17 17 17 16 16 16 16 16 15 15 15 15 15 15 16 16 16 16 16 16 17 17 18 19 18 18 18 18 19 19
21 21 21 21 21 21 21 21 21 21 21 21 21 21 21 21 21 21 21 21 22 22 22 22 22 22 22 22 22 22 21 21 21 21 20 20 19 18 17 17 17 17 17 17 17 17 17 17 17 17 17 17 17 16 16 16 16 16 16 16 16 16 16 16 15 15 15 15 15 15 16 16 16 15 15 16 16 17 18 18 18 18 18 18 19
22 21 21 21 21 21 21 21 21 21 21 21 21 21 21 21 22 22 22 22 22 22 22 22 22 22 22 22 22 22 21 21 21 20 20 19 19 19 18 18 18 18 17 17 17 17 17 17 17 16 16 16 16 16 16 16 16 16 16 15 15 15 16 15 15 15 15 15 14 14 15 16 16 15 15 16 16 17 17 18 18 18 18 18 18
22 22 21 21 21 21 21 21 21 21 21 21 21 21 21 22 22 22 22 22 22 22 22 22 21 22 22 21 21 21 21 20 20 20 20 19 19 18 18 18 18 18 17 17 17 17 17 17 16 16 16 16 16 16 16 15 15 15 15 15 15 15 15 15 15 15 15 15 14 14 15 15 15 15 15 15 16 16 17 18 18 18 18 18 18
22 22 22 21 20 20 21 21 21 21 21 21 21 21 21 22 22 22 22 22 22 22 22 22 22 21 21 21 21 21 20 20 19 19 19 19 18 18 18 17 17 17 17 17 17 16 16 16 16 16 16 16 16 16 16 16 15 15 15 15 15 15 14 15 15 14 14 14 14 14 14 14 14 15 15 15 15 15 16 17 18 18 18 18 17
22 22 22 22 21 21 21 21 21 21 22 22 22 22 22 22 22 22 22 22 22 22 22 22 21 21 20 20 20 20 20 20 19 18 18 18 18 18 18 17 17 17 17 17 16 15 15 15 16 16 15 15 15 15 15 15 15 14 14 14 14 14 14 14 14 14 14 14 14 14 14 14 14 14 14 15 15 15 15 16 16 17 18 17 17
23 23 23 23 23 22 22 21 21 21 22 22 22 22 22 22 22 22 22 22 22 22 22 21 21 20 20 20 19 19 19 19 18 17 18 17 17 17 17 16 16 16 16 16 15 15 16 16 16 16 16 15 14 14 14 14 14 13 13 13 13 12 12 12 12 13 13 13 13 13 13 13 14 14 14 14 14 14 15 15 15 15 16 17 17
23 23 23 23 23 23 22 22 22 22 22 22 22 22 22 22 22 22 22 22 22 21 21 21 20 20 20 19 19 18 18 18 17 17 17 17 17 17 16 16 16 16 16 16 15 15 16 15 15 15 15 15 14 14 14 13 13 12 12 12 11 11 11 11 11 12 12 12 13 13 13 13 13 13 13 13 13 13 14 14 15 15 15 15 16
23 23 23 23 23 23 23 23 22 22 22 22 22 22 22 23 23 23 22 21 21 21 21 20 20 20 19 19 19 18 18 17 17 17 17 17 17 17 16 16 16 16 16 16 16 15 15 15 15 15 15 14 13 13 12 12 12 11 11 11 10 10 10 10 10 11 11 11 11 12 12 12 12 12 13 13 13 13 13 14 14 14 14 14 15
23 23 23 23 23 23 23 23 23 23 23 23 23 23 23 23 22 22 21 21 21 21 21 20 19 19 19 19 18 18 17 17 17 18 17 17 17 17 16 16 16 15 15 15 15 15 15 15 15 15 15 14 13 12 11 11 10 10 10 10 10 9 9 9 10 10 10 10 10 11 11 11 11 12 12 12 13 13 13 13 13 14 13 13 13
23 23 24 24 24 24 24 24 24 23 23 23 23 22 22 21 21 21 20 21 21 20 20 19 19 19 19 19 18 18 18 18 18 17 17 17 17 16 16 15 15 15 15 15 15 15 15 14 14 15 14 12 11 11 11 10 10 10 9 9 9 9 9 9 10 10 10 10 10 11 11 11 11 11 12 12 12 12 13 13 13 13 13 13 13
23 23 24 24 24 24 24 24 24 24 24 24 23 21 21 21 20 20 20 20 19 19 18 18 18 19 19 19 18 18 18 18 17 17 17 16 16 16 15 14 14 14 14 14 14 14 13 13 14 14 12 11 10 10 9 9 8 8 8 8 8 8 8 9 9 9 9 9 10 10 10 10 11 11 11 11 11 11 12 12 12 12 12 12 13
23 24 24 24 24 24 24 24 24 24 23 21 20 20 20 20 19 19 18 18 18 18 18 18 18 19 18 18 18 18 17 17 16 16 16 15 15 14 14 13 13 13 13 13 13 12 12 12 13 12 11 9 9 8 8 7 7 6 6 7 7 7 7 7 8 8 8 8 9 9 10 10 10 10 10 10 10 11 11 11 11 11 11 12 12
Height
808 812 815 818 820 823 826 827 828 830 832 833 836 837 839 840 841 842 843 844 844 844 845 846 846 846 847 848 849 850 850 850 851 851 851 850 850 850 849 849 849 849 849 849 849 849 849 848 848 848 847 845 845 844 843 842 842 841 840 839 838 838 837 838 838 837 836 834 832 830 828 827 825 824 823 822 821 820 819 818 817 815 814 812 811
809 813 816 819 822 824 828 830 830 831 832 834 835 837 838 840 841 843 844 844 845 845 846 846 847 847 848 849 850 851 852 851 852 852 851 851 850 850 849 849 848 848 848 848 848 848 849 849 848 848 847 846 845 844 843 842 841 841 841 840 839 838 838 838 838 837 836 834 832 830 828 827 825 824 823 822 821 820 819 817 816 815 814 812 811
812 814 817 820 822 824 828 832 832 832 833 834 835 836 838 839 841 843 844 845 845 845 846 846 847 847 849 850 851 852 852 852 852 852 851 851 851 850 850 849 848 847 847 848 848 848 848 849 849 848 848 847 846 845 844 842 842 842 842 841 840 839 839 839 838 837 836 834 832 830 828 827 825 824 823 822 821 820 819 818 816 815 814 812 811
811 813 815 818 820 823 827 831 832 832 833 835 835 836 838 839 841 843 844 845 845 845 846 847 848 848 849 851 851 852 852 852 852 851 851 851 851 850 850 849 847 847 847 847 847 847 848 848 849 849 848 847 846 845 845 844 843 843 843 842 841 841 840 839 838 837 836 834 832 830 828 827 826 825 823 822 821 820 819 818 817 815 814 812 810
809 811 813 815 818 823 827 830 831 832 834 835 836 837 838 839 841 842 844 844 845 846 847 848 849 849 849 850 851 852 852 852 852 851 851 852 851 850 850 849 848 847 847 847 847 848 848 848 848 848 848 848 847 846 846 845 844 844 843 843 842 841 840 839 838 837 836 835 832 830 829 827 826 825 823 822 821 820 819 818 817 816 814 812 810
810 812 814 815 818 823 826 828 830 832 834 835 836 837 838 839 841 842 843 845 846 847 848 848 848 849 849 850 851 851 852 852 852 852 852 852 851 851 850 849 848 847 847 847 847 848 849 848 848 848 848 848 848 847 846 846 845 845 844 843 843 842 841 840 838 837 836 834 832 830 829 828 826 825 823 823 822 820 819 818 817 816 814 812 810
812 814 815 815 819 823 825 828 830 832 834 835 836 838 838 840 841 842 844 845 846 847 847 848 848 849 850 850 850 851 852 852 852 852 852 852 851 851 850 849 849 848 848 848 847 847 848 847 847 848 848 848 848 848 847 847 846 845 845 844 844 843 842 841 839 837 836 834 833 831 830 828 827 825 824 823 823 821 819 818 816 815 814 812 810
812 814 814 816 819 822 825 827 830 832 833 835 837 838 838 840 840 842 844 845 845 846 846 847 847 848 850 850 850 851 851 852 852 851 852 852 851 851 851 850 850 849 849 848 847 847 847 847 847 847 848 848 848 848 847 847 846 846 846 845 844 843 842 841 840 838 836 835 833 832 830 829 827 826 825 824 822 821 820 819 817 815 813 812 811
811 814 815 816 819 822 824 827 830 832 833 835 837 838 838 839 840 842 844 844 844 845 846 847 847 848 849 850 850 851 851 851 851 851 851 851 851 851 851 850 849 849 849 849 848 847 847 847 846 847 847 847 848 848 847 847 846 845 844 844 843 842 841 840 839 838 837 835 834 832 830 830 828 827 826 824 823 822 821 820 818 815 814 812 810
812 814 816 817 819 822 824 827 830 832 834 835 837 837 838 839 840 841 844 844 845 845 846 847 848 848 849 849 850 850 850 850 850 850 851 850 850 850 850 850 849 848 849 848 848 847 847 846 846 846 846 846 847 847 847 846 844 843 843 842 842 842 840 839 838 837 837 835 834 833 831 830 829 828 827 825 824 823 821 820 818 816 814 811 808
813 815 817 817 820 822 825 828 830 832 834 836 837 837 838 839 840 841 843 844 845 846 847 847 848 848 849 849 850 850 849 850 850 850 850 850 850 850 850 849 848 848 848 848 848 847 847 846 846 845 845 845 846 846 846 845 844 843 843 842 841 840 840 839 837 836 836 835 834 833 832 830 829 828 827 825 824 823 821 820 818 816 814 811 808
815 817 817 818 821 823 826 828 830 833 834 836 837 837 838 839 840 842 843 845 846 846 847 848 848 848 848 849 850 850 849 849 850 850 850 849 849 849 849 849 848 847 847 847 847 847 847 847 846 845 845 845 845 846 846 845 843 842 842 841 840 839 839 839 837 836 835 834 833 832 831 829 828 827 826 825 823 822 821 820 818 816 815 813 810
817 818 818 820 822 824 827 829 831 833 834 836 837 837 838 839 840 842 843 844 846 846 847 848 848 848 849 849 850 850 849 849 849 849 849 849 849 848 848 848 847 847 847 846 846 846 846 846 846 845 845 844 844 845 845 845 844 843 841 840 840 839 838 838 836 835 834 833 832 831 830 829 827 826 825 824 823 822 820 819 818 816 814 812 810
818 819 820 821 823 825 828 829 832 834 834 836 837 837 838 839 841 842 843 844 845 846 847 847 848 848 849 849 849 849 848 848 848 848 848 848 848 847 847 847 847 846 846 846 845 845 846 846 845 845 845 844 844 844 844 844 843 843 841 840 838 837 836 835 834 834 833 832 831 830 829 828 827 826 825 824 823 821 819 818 817 815 813 811 809
819 820 821 823 824 826 828 830 832 833 834 836 836 837 838 839 841 842 843 844 845 845 846 847 847 848 848 848 848 848 848 847 847 847 847 847 847 846 846 846 846 846 845 844 844 844 845 846 845 845 844 844 843 843 843 843 843 842 841 840 837 836 835 835 834 834 833 832 831 830 829 828 826 825 824 823 822 820 819 818 816 814 812 809 807
819 821 822 823 825 827 828 830 832 833 835 836 836 837 838 839 841 842 842 843 844 844 845 846 846 847 847 847 848 847 847 846 846 846 846 846 846 845 845 845 845 845 844 843 843 843 844 844 844 844 844 843 843 842 842 842 842 841 840 839 837 836 835 834 833 833 833 831 830 829 828 827 825 823 822 821 820 819 818 816 815 813 810 809 807
820 821 823 824 826 827 828 830 831 833 834 835 836 837 838 839 840 841 842 842 842 843 844 844 845 845 846 846 846 846 846 845 845 845 845 845 844 844 844 843 844 844 843 842 842 842 842 843 842 843 843 842 842 841 841 841 841 840 840 839 837 836 834 833 832 831 831 830 829 828 826 825 823 821 820 819 818 818 817 815 813 812 810 809 807
820 821 823 825 826 827 829 830 831 833 834 834 836 836 837 839 840 841 842 842 842 843 843 843 844 844 844 845 845 845 845 844 844 844 844 844 843 842 843 842 842 843 842 841 841 841 841 841 841 841 840 840 840 840 840 840 839 839 839 838 837 835 833 833 832 831 830 829 827 826 824 822 821 819 817 817 816 816 815 813 812 811 810 809 807
820 821 824 825 826 827 828 829 831 832 833 834 835 836 837 839 840 841 842 842 842 842 842 842 843 843 843 843 843 843 844 843 843 843 842 842 842 841 842 841 841 841 841 840 840 840 839 839 839 838 838 838 839 839 839 839 838 838 838 837 836 834 833 832 831 829 829 827 826 824 822 820 818 816 815 814 814 813 812 811 811 811 810 809 808
819 822 823 824 826 827 827 829 830 831 833 834 835 836 837 838 840 841 841 841 841 842 842 842 842 841 841 842 842 842 842 842 842 841 841 841 841 840 840 840 840 840 840 840 839 839 838 838 837 837 837 837 838 837 837 837 836 836 836 835 834 833 832 831 830 828 827 826 825 823 821 819 817 814 813 812 812 811 811 810 810 810 809 808 807
819 821 823 823 825 826 827 829 830 831 833 834 835 836 836 838 840 840 840 841 841 841 841 841 841 841 841 841 841 841 841 840 840 840 839 839 839 839 839 839 839 839 839 839 839 838 837 837 837 836 836 836 836 835 835 835 834 834 834 833 832 831 830 829 828 827 826 824 823 822 820 818 816 813 812 811 811 810 810 809 809 808 808 807 807
818 820 822 823 824 826 827 829 830 831 833 834 835 836 836 838 839 839 840 840 840 840 840 840 840 840 840 840 840 840 839 839 839 838 838 838 838 838 838 838 838 839 838 838 837 837 836 836 835 835 835 834 834 833 833 833 832 832 831 830 829 829 828 828 826 825 824 823 822 820 819 817 816 813 811 811 810 809 808 808 807 807 806 805 805
818 820 821 822 823 825 827 828 830 831 832 833 834 835 836 837 838 838 839 839 839 839 839 839 839 839 839 839 839 838 838 837 837 837 837 837 837 837 837 837 837 837 837 836 836 836 835 834 834 834 833 833 832 832 831 831 830 829 828 828 827 826 826 825 824 823 822 821 820 818 817 816 814 812 811 811 809 807 806 806 805 804 804 803 803
818 819 821 822 823 825 826 828 829 830 831 833 834 835 836 836 837 837 838 838 838 838 838 838 838 838 838 838 837 837 836 836 836 836 835 836 836 836 836 836 836 836 835 835 834 834 833 833 833 833 832 831 830 830 829 828 828 827 826 825 824 824 823 822 821 821 820 819 817 816 815 814 812 811 810 809 807 806 805 804 803 803 802 801 801
817 818 820 822 823 825 826 827 829 830 831 833 834 834 835 835 836 836 836 836 837 837 837 837 837 836 837 836 835 835 835 834 835 834 834 835 834 834 835 835 834 834 834 833 833 832 832 831 831 830 830 829 828 827 826 825 825 824 823 822 822 821 820 819 819 818 817 816 815 813 812 811 810 809 808 807 806 804 803 802 802 801 800 799 799
816 817 819 821 823 824 825 826 828 829 830 832 832 833 834 834 835 835 835 836 836 836 836 836 836 835 835 835 834 834 834 834 834 833 834 834 834 834 834 833 833 833 833 832 832 831 830 829 828 828 827 826 826 825 823 822 821 820 819 819 818 817 816 816 815 815 814 813 812 811 810 809 808 807 806 805 804 802 801 801 800 800 799 798 797
815 816 818 820 822 824 825 826 827 828 829 830 831 832 833 833 834 834 834 834 835 835 835 834 834 834 834 834 833 833 833 833 833 833 833 833 833 833 833 832 832 832 831 831 830 828 828 827 826 825 825 824 823 822 820 819 817 816 816 815 814 813 812 812 812 811 810 810 809 808 807 807 806 805 804 803 802 800 799 798 798 798 797 797 796
814 816 817 819 821 823 824 825 826 827 828 829 830 831 831 831 832 832 832 833 833 833 833 832 833 833 833 832 832 831 832 832 832 832 832 832 832 832 832 832 832 831 830 829 828 827 826 825 824 823 822 821 820 818 816 815 813 812 812 811 810 810 809 809 809 808 807 807 806 805 805 804 804 803 802 801 800 799 797 797 796 796 796 795 795
813 815 816 818 820 821 822 824 825 825 827 828 829 829 829 829 830 829 830 830 830 831 831 831 831 832 832 831 831 830 831 831 830 831 831 830 831 831 830 830 830 829 828 827 826 825 824 822 822 821 819 818 817 814 813 812 810 809 808 808 807 807 806 806 806 804 804 804 803 803 802 802 801 801 800 799 798 797 796 795 794 794 793 793 793
812 814 815 817 818 819 820 821 822 823 824 825 827 827 827 827 827 828 828 828 828 829 829 829 830 830 830 830 830 830 829 829 829 829 829 829 829 829 828 828 827 826 826 825 824 823 821 820 819 818 817 816 813 811 810 809 807 806 805 804 805 804 804 803 802 801 801 800 800 799 799 799 798 798 798 797 796 795 795 794 792 791 791 791 791
811 812 814 815 816 816 817 818 819 821 822 823 824 825 825 825 825 826 826 827 827 828 828 828 829 829 829 829 829 828 828 827 827 827 827 827 826 826 826 825 825 824 823 822 821 820 819 818 817 815 814 812 810 808 807 805 804 803 801 800 801 801 801 801 800 799 798 797 796 796 795 795 795 795 795 794 794 793 793 792 790 789 789 789 788
809 811 812 813 813 814 816 816 817 818 820 821 822 822 822 823 823 823 824 825 825 826 826 827 827 827 827 827 827 826 825 825 825 825 824 824 823 823 823 823 822 821 820 819 818 817 816 815 814 812 810 809 806 805 804 802 800 799 798 797 796 796 796 797 797 797 796 794 793 793 792 792 792 792 791 791 791 791 790 789 788 787 787 786 786
808 809 810 811 812 813 814 815 815 817 818 819 820 820 821 821 821 821 822 822 823 823 824 824 824 824 824 824 824 823 822 822 822 821 821 821 821 820 820 820 819 818 817 816 815 814 812 812 810 809 807 805 803 802 800 798 797 795 794 793 792 791 791 792 792 792 792 791 790 790 789 789 789 789 788 788 788 788 787 786 786 785 784 783 783
807 807 809 810 811 812 813 813 815 816 817 818 818 819 819 820 820 820 820 820 821 821 821 821 821 821 821 821 820 820 819 819 818 818 818 818 818 818 817 816 816 815 814 813 812 810 809 808 807 805 804 802 800 798 797 795 794 792 791 790 789 789 789 789 788 788 788 788 788 788 786 786 786 785 785 785 784 784 784 784 783 782 781 781 781
806 806 807 808 809 811 812 813 814 815 816 816 817 818 818 819 819 819 819 819 819 819 819 819 819 818 818 817 817 817 816 816 816 816 815 815 815 815 814 812 811 811 810 808 808 806 805 804 802 801 800 798 797 795 794 792 791 790 789 787 787 788 788 788 787 787 785 784 784 784 783 783 782 782 782 782 782 782 781 781 781 780 779 779 778
805 805 806 807 809 810 811 813 814 814 815 815 816 817 817 817 817 817 817 817 817 817 817 817 816 815 815 814 814 814 814 814 813 813 812 812 812 811 810 809 807 806 805 804 803 801 800 800 800 799 798 798 797 795 793 791 790 789 788 787 785 784 783 784 784 784 782 781 781 781 781 780 779 779 779 779 779 779 779 779 779 778 777 777 776
804 805 806 807 809 810 811 812 813 813 814 815 815 816 816 816 816 816 816 816 816 815 815 815 814 814 813 813 813 813 812 811 811 810 810 809 809 808 806 804 803 802 802 801 801 800 800 800 799 797 795 794 793 791 789 787 786 785 784 784 781 778 777 777 777 778 778 778 778 779 779 777 776 776 776 776 775 776 776 776 776 776 775 775 774
804 804 805 807 808 809 811 811 811 812 813 814 814 815 815 815 815 815 815 815 815 814 814 813 813 813 812 811 811 811 810 809 809 808 807 807 806 805 805 804 804 803 802 801 800 799 797 795 794 793 791 789 787 786 784 783 781 780 779 778 776 774 773 772 772 773 775 775 774 774 775 774 774 774 774 773 773 773 773 773 773 773 773 772 771
804 804 805 806 807 808 810 810 810 811 812 812 813 813 813 814 814 814 814 814 813 813 812 811 811 811 810 810 810 809 808 807 806 805 805 805 805 805 805 804 802 800 798 796 795 794 792 790 789 788 788 786 784 783 781 779 777 776 774 773 771 770 769 769 769 769 771 771 771 770 771 771 771 772 772 771 771 771 770 770 771 771 771 770 770
803 804 805 806 806 807 808 809 809 810 810 811 811 811 811 812 812 812 812 812 811 810 810 809 809 809 809 809 808 807 806 805 804 804 804 803 802 802 801 798 795 792 791 791 791 790 789 788 786 785 784 783 781 780 778 777 775 773 771 770 769 767 766 765 766 767 768 768 768 768 767 767 767 768 769 768 767 767 767 767 767 768 768 768 768
801 802 803 804 805 806 807 808 808 808 808 809 809 809 810 810 810 810 810 810 809 808 808 808 808 807 807 807 806 805 804 803 802 802 801 800 798 797 796 794 791 788 787 788 789 788 787 785 784 783 783 781 780 778 776 775 773 771 770 769 768 766 766 765 765 766 765 765 765 764 764 763 763 764 764 764 763 764 764 764 764 765 765 765 765
799 800 800 801 803 804 805 806 806 807 807 808 808 808 809 808 808 809 808 808 807 807 806 806 806 805 805 804 804 804 803 801 800 799 797 796 795 794 793 791 789 787 786 786 786 786 785 783 782 782 782 781 780 777 775 773 772 770 769 768 768 767 766 765 765 764 763 762 761 761 760 760 761 761 761 761 761 761 761 761 761 761 762 762 763
797 798 798 800 801 802 803 804 805 805 806 806 806 807 807 806 807 807 806 806 806 805 805 804 804 804 804 803 802 802 801 799 798 796 795 793 792 791 790 789 787 786 785 784 784 784 783 781 780 779 780 779 778 775 773 771 770 769 768 767 766 766 765 763 763 762 761 760 760 759 758 758 759 759 759 758 758 759 760 759 758 758 758 759 760
795 796 797 798 798 800 801 802 803 804 804 804 805 805 805 805 805 805 804 804 804 803 803 802 801 802 802 801 800 799 799 797 796 794 793 791 789 788 787 786 785 784 783 782 782 783 782 780 778 777 777 776 775 773 772 771 770 768 766 765 764 764 764 762 762 761 760 759 759 758 757 757 757 757 757 756 756 756 757 757 757 756 755 756 757
793 794 795 795 796 798 799 800 801 802 803 803 803 803 803 803 803 802 802 802 801 801 801 800 799 799 799 798 797 797 796 795 795 793 791 789 787 786 785 785 784 783 782 781 781 781 780 778 777 776 775 774 773 773 772 771 769 768 766 765 764 763 763 762 761 760 759 758 757 756 756 756 755 754 754 753 753 754 754 754 754 754 754 753 753
792 793 794 794 795 796 797 798 799 800 801 802 802 801 801 800 800 800 800 800 799 799 799 798 797 797 796 796 795 794 793 793 793 792 790 788 787 786 785 784 783 782 781 780 780 779 778 777 776 775 774 773 772 771 771 769 768 767 766 765 765 764 763 762 761 760 759 758 756 755 755 754 753 753 752 752 752 751 751 750 750 750 750 750 751
791 792 793 794 794 795 796 797 798 799 800 800 800 800 799 799 798 798 798 798 798 797 797 796 796 796 795 795 794 792 792 792 792 791 789 788 786 785 785 783 782 781 781 780 779 778 777 776 775 774 774 772 771 770 770 769 767 767 766 765 764 764 763 762 761 760 759 758 757 755 755 753 753 752 751 751 750 749 748 748 747 747 747 747 749
790 791 792 793 793 794 795 796 797 798 799 799 798 797 797 797 796 796 796 796 796 796 795 794 794 794 793 793 792 792 792 791 790 789 789 787 786 785 784 783 782 781 781 780 779 778 777 776 775 775 773 771 769 770 770 769 768 767 766 765 764 764 763 762 761 760 759 758 756 755 755 753 752 751 750 749 748 747 747 746 745 744 744 744 746
790 790 791 792 793 794 794 795 796 797 796 796 796 796 796 796 796 796 796 796 795 795 794 794 793 793 792 791 791 791 791 790 789 789 788 787 786 786 784 783 782 782 781 780 779 778 777 776 776 775 773 771 770 770 770 769 768 768 767 766 765 764 763 762 760 759 758 757 755 755 754 753 751 750 749 747 746 745 744 743 742 742 741 741 742
790 790 791 791 792 793 794 794 795 795 794 794 795 795 796 796 796 795 795 795 794 793 793 793 793 792 792 791 790 790 790 789 789 789 788 787 787 786 785 784 783 782 781 780 779 778 778 777 777 776 774 772 771 771 770 769 769 768 768 767 766 765 763 761 760 758 757 755 753 753 752 751 750 749 747 746 745 744 742 741 740 740 739 739 738
789 790 791 791 792 792 793 793 793 793 794 795 795 795 796 796 796 795 796 796 794 793 793 793 792 791 791 790 790 790 789 789 789 789 788 788 787 786 785 784 783 782 782 781 780 779 779 778 778 777 775 773 772 772 771 770 769 769 768 767 766 764 763 761 759 757 756 754 752 751 750 748 748 747 745 744 743 742 741 740 739 738 737 736 736
Wind_Speed
21 20 20 20 19 17 13 13 15 15 14 11 10 11 11 10 10 10 10 9 8 7 7 6 5 7 9 9 8 7 6 7 7 6 5 4 1 5 7 7 7 8 8 9 10 11 12 12 13 13 13 12 10 9 8 6 8 9 7 8 8 8 12 9 5 8 13 14 17 16 12 14 16 14 13 14 14 18 19 16 16 18 18 17 17
19 19 19 18 17 17 14 13 14 13 12 11 11 12 11 10 11 11 10 9 8 8 9 8 6 8 11 9 7 7 6 7 7 5 6 7 4 4 6 6 6 5 5 8 9 10 11 12 13 13 13 13 10 10 11 9 9 10 10 10 11 12 12 10 8 9 12 15 19 17 13 15 15 15 16 14 14 18 19 18 18 20 20 18 18
18 16 17 17 17 17 14 11 11 12 11 10 11 12 11 11 11 11 11 10 9 9 9 10 9 10 11 8 6 6 3 3 4 4 6 7 6 6 7 8 8 5 3 6 9 10 10 9 12 13 13 13 11 10 13 13 11 11 12 13 14 13 12 12 12 11 11 14 18 17 15 15 13 15 20 20 19 18 19 19 19 21 22 20 19
20 17 19 20 18 15 13 10 11 12 11 10 12 12 11 12 11 11 11 10 10 10 9 10 9 8 9 8 7 5 3 2 1 2 5 6 6 6 7 8 10 8 6 8 10 11 9 7 10 13 12 13 12 10 13 12 11 12 11 11 12 12 13 13 12 12 12 13 17 19 16 15 15 16 19 21 21 19 19 20 20 20 22 20 20
23 22 23 21 16 14 14 13 12 13 12 11 12 12 12 13 12 11 11 11 12 9 8 8 7 6 7 8 7 5 3 2 4 4 4 5 5 6 7 8 10 10 8 7 11 12 9 7 10 13 12 11 11 10 13 13 10 11 11 11 13 14 16 16 13 13 13 13 17 18 15 15 17 16 17 20 20 18 19 20 20 20 21 21 20
23 23 23 20 17 16 16 14 14 14 13 12 12 13 13 13 13 11 11 12 12 9 6 5 5 5 3 5 6 4 5 4 3 4 4 4 5 7 8 8 10 11 9 8 9 10 9 7 9 14 13 9 9 10 12 13 11 12 13 14 15 15 17 17 14 15 16 13 16 17 16 17 17 15 18 21 19 18 19 21 21 21 21 21 21
24 23 21 20 19 18 16 15 15 14 13 13 13 13 13 13 12 11 11 11 11 10 6 3 5 5 2 2 4 3 3 2 1 2 2 3 4 7 8 8 10 10 8 10 10 6 5 5 6 13 15 10 8 9 9 11 11 13 14 13 13 13 14 15 16 17 16 15 16 17 17 18 18 18 21 21 18 18 21 21 22 22 22 21 22
25 21 20 21 20 18 17 17 16 14 14 15 13 12 13 13 13 12 10 8 8 8 7 4 4 7 6 2 2 2 2 3 3 2 2 3 3 4 6 6 8 8 6 8 10 5 4 4 4 9 13 11 9 7 7 8 8 10 10 9 8 9 9 12 16 17 15 14 16 16 16 17 18 19 22 21 17 18 20 21 21 22 23 22 21
23 19 20 21 19 17 17 17 15 14 14 15 13 12 13 14 13 13 8 7 6 5 6 4 2 5 6 5 4 4 4 6 5 1 1 2 2 2 4 6 6 7 6 7 9 5 6 4 4 7 10 8 7 5 5 5 5 5 5 5 4 5 5 7 10 13 13 15 16 15 15 15 16 19 20 19 18 19 21 21 20 21 23 23 22
19 19 21 20 18 18 17 17 16 14 14 15 11 10 13 12 12 13 8 7 5 3 2 3 4 3 4 5 5 5 6 6 5 3 1 2 1 2 3 6 6 8 9 7 8 7 6 4 7 5 6 5 3 3 4 4 5 6 5 4 4 4 3 2 4 7 9 12 14 15 14 13 15 18 18 18 19 20 20 20 20 21 22 21 21
18 21 20 18 18 19 17 16 16 14 15 15 11 10 13 12 10 13 9 6 5 4 2 3 4 3 2 3 2 0 3 5 4 2 3 2 2 2 3 6 7 10 10 5 5 7 6 6 6 2 4 3 2 2 4 7 11 11 7 7 7 7 7 4 3 3 5 8 10 12 13 12 13 15 15 17 19 19 19 19 19 20 20 18 18
19 20 18 18 19 17 15 16 16 15 15 14 11 10 11 11 9 10 10 8 5 5 5 4 4 4 4 5 4 1 4 2 1 3 5 5 4 3 3 5 8 10 9 6 5 4 4 6 6 5 4 2 3 2 5 9 12 12 10 8 9 9 11 9 5 4 4 5 7 9 11 11 11 12 13 16 18 18 18 19 19 19 20 18 17
19 18 16 18 18 16 16 16 15 15 14 13 12 10 10 10 9 7 8 9 7 6 5 5 4 4 4 5 5 2 3 2 2 4 6 7 6 4 3 5 7 8 9 10 5 1 2 5 7 4 4 3 4 2 5 7 10 11 12 12 12 11 13 13 9 7 6 4 7 10 13 12 11 11 12 14 16 16 17 18 20 21 21 21 22
17 16 16 17 17 15 16 17 15 14 14 13 13 12 10 10 10 8 8 8 7 7 6 5 6 5 4 5 6 5 5 5 2 5 7 7 5 5 4 5 6 8 11 10 4 1 2 5 8 6 0 2 4 4 4 5 7 11 12 12 16 16 12 13 12 10 6 5 9 12 14 14 13 13 13 13 13 13 14 17 20 23 24 25 24
15 15 16 16 16 15 16 17 15 14 14 13 13 12 10 10 11 10 10 9 8 8 7 6 7 6 5 6 7 7 6 5 3 6 7 6 6 5 4 5 6 7 9 9 4 3 3 5 6 7 6 7 7 7 7 7 7 10 12 12 17 19 12 9 12 10 6 8 10 12 14 14 15 16 17 16 14 12 12 15 20 23 25 24 21
15 15 15 15 15 15 16 16 15 14 14 13 13 13 11 10 10 10 9 9 10 11 9 7 7 7 6 7 7 7 6 6 7 7 7 7 6 5 4 6 6 6 8 10 6 5 6 7 7 7 9 9 8 9 10 9 8 10 12 13 16 19 17 13 12 10 9 11 13 15 15 15 17 19 20 18 16 12 11 14 19 21 21 20 17
15 14 15 15 14 15 16 15 15 15 14 14 14 12 11 11 10 8 8 9 9 10 9 9 9 8 7 7 7 7 9 9 8 7 7 7 7 5 5 6 7 7 9 11 7 6 7 9 9 8 9 9 9 9 9 10 11 11 12 13 16 18 19 16 11 8 10 14 16 17 19 20 21 21 19 17 15 13 14 16 16 17 17 15 13
15 15 15 15 15 15 15 14 15 14 14 15 14 11 11 12 10 9 10 10 8 7 7 8 8 8 7 7 8 8 8 7 7 7 8 8 7 6 6 7 8 8 9 11 9 9 10 10 11 12 12 10 11 11 10 11 12 12 12 13 15 17 19 17 12 10 12 15 17 20 22 22 22 22 19 17 14 13 15 17 16 15 15 13 12
16 16 17 16 16 16 16 16 17 16 14 12 11 11 12 12 11 10 10 9 8 8 8 8 8 10 10 9 7 7 7 8 9 9 9 8 8 8 7 8 9 9 9 11 10 9 11 13 14 17 15 12 12 12 11 10 12 13 13 13 15 17 18 17 16 15 16 18 20 23 24 23 23 24 22 16 12 12 15 15 13 13 13 13 14
18 18 18 17 17 16 15 14 15 16 14 12 11 11 11 12 12 11 10 10 10 9 10 10 9 8 6 5 5 6 8 9 10 10 10 9 10 9 9 9 11 10 10 11 11 11 14 15 16 17 17 15 14 12 11 11 13 14 14 15 17 18 18 18 19 20 20 21 22 23 24 24 25 25 22 15 9 7 8 8 8 10 12 14 15
20 19 19 18 17 15 13 13 12 12 13 13 12 11 10 11 12 12 12 12 12 11 11 11 8 7 5 5 6 8 9 10 10 11 11 11 11 11 10 11 11 11 11 11 12 14 15 14 12 12 12 13 13 13 13 14 15 15 16 17 19 20 20 20 22 23 22 22 22 21 23 24 24 24 22 14 5 3 5 7 9 11 11 12 14
20 20 19 18 17 15 13 13 13 11 11 12 11 10 10 11 12 13 13 13 13 12 11 10 9 8 8 9 9 11 11 11 11 12 13 13 13 13 12 12 12 12 13 12 12 14 15 14 13 12 11 12 14 15 16 16 17 18 20 21 22 22 22 22 23 24 22 21 20 20 21 23 22 24 23 13 2 3 9 12 13 12 10 10 13
21 20 18 16 17 17 15 13 12 11 10 10 10 10 11 11 12 12 13 13 12 12 12 11 10 10 10 11 12 12 13 13 13 13 14 14 14 15 14 14 13 14 15 16 15 15 16 16 14 14 15 15 15 16 17 18 20 22 24 25 25 25 24 24 25 24 23 21 20 20 22 22 21 24 22 11 4 9 13 13 13 12 9 10 13
20 20 19 17 17 17 16 14 11 9 10 10 9 10 10 11 13 13 14 14 13 12 12 12 11 11 12 12 13 13 13 14 14 13 14 15 16 17 16 15 14 14 16 18 18 18 18 18 18 18 18 18 19 20 22 23 25 27 28 29 29 28 26 26 26 25 22 21 20 20 21 21 21 23 21 11 9 13 15 13 13 11 10 11 13
21 19 19 19 18 16 15 14 10 9 11 11 9 10 11 13 14 14 14 14 13 12 12 12 12 13 12 12 14 14 13 14 13 13 14 15 17 17 17 16 15 14 15 17 18 19 20 21 22 22 22 23 25 26 27 28 29 30 30 30 30 29 28 27 25 23 21 21 20 20 21 21 22 22 18 13 13 17 19 17 12 9 9 11 12
21 19 18 18 17 15 14 13 11 10 11 11 10 11 12 12 13 13 14 13 13 14 13 12 12 13 13 13 15 14 13 13 13 14 14 15 15 16 16 16 16 16 16 17 18 19 20 22 23 24 25 25 26 27 29 30 30 30 30 29 28 27 27 26 25 23 23 22 21 20 21 22 21 20 17 15 17 21 22 17 11 7 8 9 12
19 18 18 18 16 15 15 14 12 11 11 11 11 11 12 12 13 14 14 14 15 15 14 13 13 13 13 14 15 14 13 13 13 13 13 12 12 12 12 13 14 14 16 17 17 19 20 21 23 23 23 24 25 26 28 29 29 29 29 28 27 27 26 25 25 25 24 23 22 21 21 21 20 18 17 18 19 21 19 14 9 6 7 8 12
19 17 17 17 16 14 14 14 13 13 13 12 12 13 13 14 14 15 16 16 16 15 14 14 13 12 13 14 14 12 12 12 11 11 10 8 8 8 9 11 12 13 15 16 16 17 18 20 21 22 22 23 25 26 26 27 28 29 28 27 28 28 27 24 24 24 25 24 23 23 23 22 20 18 18 19 20 20 16 10 8 6 7 7 10
19 17 17 16 15 15 15 15 14 14 14 15 14 14 15 15 14 14 15 16 17 17 16 14 12 11 12 13 12 11 11 10 9 9 10 10 11 13 15 17 18 18 19 21 21 22 23 23 23 23 23 24 24 24 24 24 24 24 25 27 28 27 25 23 23 25 26 25 25 25 24 22 21 18 17 18 20 19 16 11 8 6 6 6 9
18 17 16 15 14 14 15 16 16 16 15 16 15 15 15 16 15 14 12 11 11 13 14 15 14 13 14 14 13 13 13 13 13 14 16 17 19 20 21 22 22 21 22 23 23 24 25 25 24 23 22 22 23 23 22 23 22 20 21 24 25 25 24 24 26 27 27 25 25 26 24 22 21 19 18 18 19 18 15 11 9 7 6 7 11
17 16 16 17 17 16 15 16 19 19 16 14 15 16 15 15 15 16 16 15 14 13 14 15 16 17 19 20 21 20 20 20 21 22 22 23 23 23 23 22 22 23 23 23 23 24 24 23 22 22 22 22 22 23 22 23 22 20 19 18 17 18 21 24 24 25 25 24 24 23 22 21 20 19 19 19 19 18 16 13 14 14 11 9 10
16 17 19 19 18 18 16 13 14 17 16 13 13 13 12 12 14 15 15 17 19 19 19 19 20 21 22 24 25 25 25 24 25 25 25 25 25 24 24 25 25 26 27 25 25 26 26 24 23 23 23 23 24 24 23 23 23 22 20 18 16 17 20 21 19 19 22 25 25 23 21 20 20 20 20 19 18 18 18 17 17 16 12 9 9
17 18 20 18 14 13 12 8 7 11 15 15 13 12 11 10 11 13 13 15 17 18 18 18 19 20 20 21 22 23 24 24 25 26 26 26 26 26 27 28 29 29 30 29 27 29 30 27 25 25 25 25 25 25 24 24 23 23 21 20 19 19 19 18 17 19 22 24 24 22 21 20 19 19 19 19 18 18 18 19 18 16 14 13 10
17 17 18 16 13 10 8 6 6 9 12 12 12 12 11 11 10 10 10 11 13 15 16 16 15 15 17 18 19 20 22 23 24 25 25 25 25 27 29 30 30 31 31 31 30 31 32 30 27 27 27 26 26 25 25 25 25 24 24 23 21 18 17 17 19 20 21 21 20 20 21 21 20 19 19 18 18 18 19 20 17 15 14 13 9
17 14 12 12 13 10 8 8 9 9 10 9 8 8 9 10 10 10 10 10 11 13 14 14 14 15 17 18 19 20 21 21 22 23 23 23 25 28 30 32 32 32 31 31 31 33 35 34 33 32 31 29 28 27 26 25 25 24 23 22 20 17 18 20 21 21 22 21 21 22 22 21 19 19 20 19 18 18 18 18 17 16 15 12 9
15 11 8 9 9 9 10 11 11 10 9 9 9 9 9 10 11 11 12 13 14 14 14 14 15 16 17 18 18 18 19 20 21 23 24 24 26 29 30 32 33 32 29 28 28 30 31 31 30 30 28 26 25 25 24 25 25 24 22 21 20 20 21 23 23 23 23 22 22 22 23 22 21 20 19 19 19 18 17 17 17 19 19 16 11
11 9 9 10 9 7 8 10 12 11 10 10 10 10 11 11 11 11 11 12 12 12 14 15 15 15 15 15 16 17 20 21 22 23 25 26 28 30 32 33 35 34 31 28 26 25 23 22 22 23 22 21 22 22 23 23 24 23 23 24 25 26 25 25 26 27 25 22 20 20 20 21 21 20 19 18 19 19 18 17 18 20 21 19 15
10 9 9 12 14 11 8 9 10 9 9 10 10 10 10 11 11 10 11 12 12 13 15 16 15 14 14 15 17 19 20 21 21 22 23 24 25 27 30 31 31 30 28 28 27 25 24 24 24 24 22 23 25 26 26 26 25 24 23 23 23 24 23 23 25 27 25 21 21 21 20 19 19 19 20 19 18 18 19 18 17 19 19 18 14
11 9 6 9 14 12 9 9 9 9 10 10 11 11 11 11 11 10 11 13 14 14 15 14 13 14 15 16 17 18 18 18 18 18 17 16 17 18 20 22 22 21 22 25 26 26 26 27 28 26 24 25 26 27 27 27 27 26 23 20 19 21 22 22 24 25 24 23 22 21 21 21 20 18 17 18 19 19 19 18 18 18 17 16 14
12 11 9 9 10 10 9 9 9 9 11 11 11 11 11 11 11 12 12 13 14 14 14 13 13 14 15 16 17 20 21 21 18 15 16 18 20 19 19 21 23 22 22 23 24 23 23 24 24 23 22 22 22 23 23 23 24 24 23 21 20 21 22 23 23 24 23 22 20 19 20 23 23 20 18 19 20 20 20 19 19 18 18 18 17
11 11 13 15 13 10 9 10 9 9 10 10 10 11 11 11 12 12 12 13 14 14 13 14 15 16 17 19 20 21 22 20 17 17 19 21 23 23 22 22 23 23 22 22 21 20 19 19 19 18 17 17 17 18 18 17 17 18 19 19 19 20 21 21 21 22 22 21 20 18 19 21 22 22 21 23 23 23 22 22 20 19 19 19 18
10 11 13 18 17 13 10 10 10 10 10 10 10 10 11 11 12 12 12 13 14 13 13 15 17 18 19 18 17 17 17 16 16 18 19 21 21 20 19 18 18 17 17 18 18 17 16 15 15 15 15 15 15 15 15 13 12 12 14 15 16 16 17 17 17 18 19 20 19 17 17 19 20 21 21 22 22 23 23 22 21 21 20 18 17
12 11 12 16 17 14 11 10 10 11 11 11 11 12 12 12 12 13 14 14 13 14 15 17 16 15 15 15 15 17 18 15 15 17 19 20 18 16 15 14 14 13 13 14 15 16 14 12 12 13 13 14 15 15 14 12 11 11 12 14 15 15 16 16 16 17 17 17 17 17 17 18 20 21 21 21 21 21 20 20 20 19 18 16 16
13 12 12 14 16 14 11 9 10 10 11 11 12 12 12 13 14 14 13 13 14 16 17 15 12 12 15 17 19 19 17 14 15 19 21 19 17 15 13 13 13 13 13 13 14 14 14 12 13 13 13 13 14 15 14 13 11 11 12 13 13 13 14 14 14 15 15 13 13 14 15 15 16 18 19 19 19 18 20 23 23 19 16 15 14
12 9 10 11 10 9 9 10 11 11 11 11 11 12 13 14 14 14 14 15 16 14 12 10 11 15 18 17 16 16 15 14 16 19 19 16 14 13 12 12 12 13 13 13 13 13 12 12 12 14 14 14 15 15 14 12 10 10 10 11 12 12 13 13 13 13 13 13 13 13 13 12 13 15 17 18 18 18 19 21 23 23 22 20 18
9 8 9 9 9 9 10 11 11 11 11 11 12 13 13 13 13 14 13 11 10 8 10 13 16 18 18 15 14 16 17 15 14 14 14 13 12 11 11 11 12 12 13 13 14 13 13 13 14 15 15 14 13 12 11 10 10 11 11 11 12 12 13 13 13 12 13 14 14 14 14 15 15 15 16 17 18 19 20 20 21 23 24 24 23
9 9 9 10 10 10 10 10 10 11 11 11 11 12 13 14 14 13 8 4 6 11 15 19 20 19 18 16 15 16 16 14 12 11 11 11 11 11 12 13 13 13 14 15 15 14 14 14 15 16 15 12 9 9 10 10 11 12 13 13 14 15 16 16 16 15 15 15 14 14 15 16 17 18 19 19 19 19 19 20 21 22 22 21 22
9 10 10 9 10 9 9 10 11 11 11 12 14 16 16 14 11 7 5 7 11 16 18 18 16 16 16 15 13 12 13 13 12 12 11 10 11 12 13 13 13 14 15 15 15 14 14 14 14 15 13 8 5 6 9 11 12 13 15 16 19 20 20 20 19 18 18 17 16 15 16 17 18 19 21 22 22 22 20 19 20 21 21 21 22
8 9 9 9 9 9 9 9 9 10 12 15 16 13 8 4 3 6 10 14 14 13 13 12 12 13 14 13 11 10 11 12 12 12 12 12 13 13 13 12 14 15 16 15 15 15 14 14 15 15 10 6 6 7 10 13 14 15 17 19 22 23 24 25 24 23 21 20 18 17 17 17 18 19 19 19 21 22 22 21 20 20 19 20 23
7 8 8 8 8 8 8 9 10 10 12 11 6 1 3 5 7 9 13 14 10 8 9 10 11 11 11 11 10 10 11 11 10 10 11 13 14 13 13 14 15 16 16 14 14 15 14 14 15 13 9 7 8 11 14 16 18 20 20 22 24 24 24 25 25 24 23 22 21 20 19 19 18 18 18 17 18 19 21 22 21 20 20 19 20
8 8 7 7 7 7 9 10 10 7 4 6 9 10 10 10 10 10 11 11 8 6 8 9 8 9 9 10 10 11 11 10 10 10 12 13 13 13 13 14 15 14 14 14 14 15 14 14 13 12 10 11 12 14 16 18 21 23 23 24 24 24 23 24 24 23 23 22 20 18 18 18 17 17 17 17 17 17 18 20 20 19 20 20 19
Wind_Direction
156 158 157 158 162 166 162 143 135 132 131 142 153 144 137 144 144 133 130 130 123 116 108 90 72 84 86 80 80 71 53 60 70 62 33 10 108 100 61 45 50 50 44 40 35 25 19 17 16 12 0 353 353 345 353 17 349 343 12 355 342 39 42 13 339 321 325 335 332 324 340 351 340 337 339 339 350 352 343 343 349 344 342 348 348
155 159 158 156 159 159 144 129 135 137 138 152 150 139 142 146 139 132 127 125 123 127 127 109 84 90 92 83 85 87 68 64 73 69 34 12 13 46 27 21 37 51 60 50 41 34 21 15 15 12 2 354 352 341 342 6 15 358 1 354 352 17 18 4 8 346 331 338 330 325 345 346 336 344 345 343 357 359 351 350 350 345 345 349 346
152 151 148 152 160 160 147 134 141 142 146 155 146 141 146 142 135 134 132 133 132 127 120 107 89 86 91 87 82 84 85 96 113 120 78 38 15 31 26 7 359 5 61 59 48 41 26 18 19 13 3 353 349 345 346 4 21 5 355 354 355 2 358 359 9 349 327 331 327 328 339 337 338 354 357 357 358 355 352 351 350 346 346 348 347
148 148 150 157 165 163 156 155 154 147 148 154 146 142 145 140 136 140 143 136 118 106 106 110 109 112 115 112 101 91 81 74 81 142 95 58 21 21 20 0 351 4 51 68 57 38 20 34 34 17 6 355 351 354 353 2 15 4 357 354 351 350 343 347 354 338 329 332 326 324 329 339 351 354 358 3 357 348 348 349 349 346 344 346 344
152 154 153 154 157 159 160 162 155 147 150 156 150 144 143 142 142 147 146 125 108 106 115 124 144 160 141 121 114 118 129 85 22 22 55 43 14 9 10 359 353 6 28 49 58 39 20 55 50 22 12 2 358 2 355 358 6 1 0 359 357 353 342 347 350 333 331 329 319 321 333 345 348 348 359 3 353 346 347 347 346 342 340 343 341
152 150 147 145 148 154 158 158 152 150 156 156 150 147 145 144 147 147 135 124 124 127 124 142 181 193 160 125 124 135 149 134 51 41 47 24 3 359 4 360 352 359 3 7 36 37 24 55 50 22 19 13 4 7 358 355 0 6 11 7 3 355 345 350 347 326 329 332 321 329 346 346 342 352 5 359 348 348 351 347 343 339 338 341 341
151 152 149 145 148 152 154 155 154 156 159 155 151 153 149 147 148 140 134 148 157 144 130 188 193 169 140 120 130 134 144 157 158 122 72 16 3 349 353 2 357 359 1 354 2 22 41 67 48 21 23 26 19 12 3 359 358 5 12 7 0 355 347 347 336 325 338 344 333 339 348 344 347 359 0 351 347 353 353 347 338 334 337 340 339
158 160 151 144 149 154 154 154 157 160 158 154 157 159 153 151 147 136 143 178 188 158 145 175 172 145 147 171 165 160 207 227 220 144 65 18 18 357 345 348 348 353 0 350 349 14 89 83 34 8 13 27 38 22 7 9 3 360 2 356 352 353 352 345 332 332 347 344 330 338 344 343 351 357 351 345 350 356 352 344 334 331 336 339 336
160 157 147 147 152 155 154 153 158 162 154 154 164 162 153 153 147 141 161 199 199 166 148 161 193 152 155 183 201 204 213 216 224 216 54 359 8 28 341 319 321 333 337 333 336 11 91 76 342 336 356 20 51 43 18 15 12 2 348 335 338 344 0 3 337 333 344 338 329 338 346 347 353 353 346 344 351 352 345 340 334 332 335 334 332
155 149 147 150 152 152 153 154 158 161 155 158 170 162 156 163 152 146 176 209 188 167 147 183 218 198 179 205 222 230 220 198 207 245 349 348 2 53 333 310 304 309 312 315 326 353 51 20 311 317 14 24 33 31 15 338 304 284 271 279 302 304 304 360 353 335 336 335 334 339 343 345 349 346 340 340 344 341 337 337 332 330 333 331 330
149 146 148 149 149 149 151 154 157 158 157 163 174 167 164 172 155 144 170 210 189 177 207 220 233 245 247 273 323 85 161 157 179 282 2 8 359 19 316 303 304 304 307 324 343 349 11 343 294 210 97 42 328 316 325 315 306 297 285 275 272 270 266 276 326 329 320 327 334 337 333 331 337 336 332 334 336 333 333 333 329 327 328 326 324
145 145 146 145 145 148 151 155 156 156 158 165 175 173 166 172 165 151 168 196 196 187 198 218 253 291 310 320 344 84 147 148 333 344 357 347 330 330 299 294 303 304 310 328 341 346 354 328 287 205 160 66 29 326 298 314 321 328 334 314 288 264 249 259 284 271 273 314 323 316 308 305 315 325 329 332 332 330 331 329 326 323 321 318 312
143 143 143 143 146 153 153 151 153 157 162 166 171 175 169 169 175 174 176 191 199 198 206 221 235 264 293 302 307 279 224 257 322 344 339 331 320 309 283 286 295 301 310 312 308 319 348 317 294 251 164 93 26 315 289 309 316 320 322 314 312 294 251 254 282 266 247 298 315 306 305 305 313 325 330 331 329 331 330 325 323 319 313 311 307
142 143 143 144 151 154 150 152 158 163 169 171 171 178 179 167 172 187 195 201 203 198 212 229 223 230 252 270 287 278 241 238 278 330 332 329 318 299 279 277 284 291 297 295 270 216 287 287 289 289 299 18 320 272 271 304 305 309 309 302 314 315 273 252 274 274 265 314 322 319 320 320 323 322 319 318 319 327 332 325 321 316 309 309 310
144 144 144 149 156 156 154 159 164 166 171 172 170 178 183 174 180 194 198 201 205 204 216 230 226 226 230 244 269 268 236 230 283 316 324 325 321 313 284 272 280 287 290 285 242 200 260 265 273 288 298 304 285 251 261 291 298 307 311 301 306 314 304 273 271 275 300 333 329 326 321 313 311 308 306 303 298 307 329 331 327 319 311 312 319
148 147 149 157 162 161 160 162 163 166 170 171 176 183 179 179 196 204 201 203 205 201 208 227 230 228 228 234 250 257 251 264 285 297 308 317 323 324 288 273 275 271 278 278 251 222 254 254 246 267 285 292 283 259 267 289 297 299 304 302 302 309 315 308 286 278 312 333 328 323 316 307 305 303 302 297 286 286 302 316 326 326 318 318 329
151 152 156 162 164 163 164 164 163 169 174 175 186 192 177 179 202 209 210 227 223 201 204 224 227 224 229 233 237 244 250 257 264 276 297 312 319 316 288 275 271 262 273 279 257 237 256 247 230 244 267 279 285 279 279 290 293 293 294 295 300 305 308 308 295 290 320 330 325 318 312 308 307 304 300 291 281 278 278 285 305 319 318 322 330
154 156 158 163 162 159 164 166 162 172 184 181 185 188 175 181 205 210 214 236 244 228 229 234 229 230 237 234 235 244 250 257 265 275 290 302 309 305 284 273 271 263 271 277 258 239 249 248 239 248 256 255 260 270 282 288 287 287 284 284 292 295 298 303 306 313 322 322 319 314 309 308 308 306 302 293 281 270 264 270 289 308 314 322 325
156 157 159 162 162 160 168 173 168 175 189 188 188 192 182 184 205 217 222 235 242 248 256 252 245 248 240 227 232 247 253 264 271 273 280 289 298 301 285 272 271 265 269 282 275 252 250 251 246 251 257 253 249 259 275 284 286 285 280 278 282 284 288 298 305 310 313 311 311 309 307 308 311 308 303 297 283 269 263 268 288 308 320 327 325
158 157 158 161 162 163 169 174 171 174 180 184 198 206 193 188 205 217 225 233 235 239 247 249 256 266 252 226 240 256 254 259 263 266 272 279 287 294 283 267 267 267 267 277 280 269 264 260 254 255 259 254 251 261 273 282 288 287 277 272 275 279 285 291 293 299 304 303 303 305 304 306 310 309 302 289 272 271 275 275 293 315 328 328 321
158 157 159 161 162 162 161 164 169 173 174 181 200 211 198 195 210 219 223 230 237 241 247 254 268 291 295 276 269 266 261 259 260 263 269 275 280 287 283 268 263 267 270 271 271 274 280 281 277 276 267 254 256 269 278 284 288 285 279 277 279 284 289 289 290 295 297 297 298 299 299 301 305 307 303 290 257 252 287 286 292 301 309 309 304
160 159 161 159 157 159 159 161 168 172 173 182 195 202 199 204 216 224 228 236 243 247 255 265 273 280 282 274 269 269 264 261 261 262 267 272 275 280 283 276 266 263 268 271 269 273 283 290 294 297 290 277 274 276 279 284 284 281 283 286 288 290 289 287 289 291 291 291 292 290 291 295 297 299 301 299 300 311 304 303 302 298 293 292 291
163 163 165 159 155 158 160 162 170 171 171 180 195 202 205 212 221 227 234 241 244 246 254 263 268 272 275 270 266 265 263 263 264 263 265 269 272 276 282 283 275 265 262 265 266 268 274 280 285 288 288 286 283 280 280 284 284 283 285 288 289 290 289 285 284 284 283 284 284 282 284 287 286 290 294 296 321 318 311 309 304 295 287 291 292
167 167 167 166 166 164 161 165 174 173 170 180 197 207 212 218 226 233 237 240 244 249 253 258 261 262 265 266 266 265 264 264 265 265 267 269 271 274 277 282 282 272 263 262 265 267 270 273 275 277 279 281 284 286 286 285 284 284 285 287 287 287 284 281 279 278 277 276 274 274 277 278 279 283 284 286 310 316 311 303 293 285 286 296 301
172 171 169 171 176 175 170 172 176 173 176 184 197 212 220 223 228 235 236 238 245 251 252 255 256 255 256 262 265 266 267 267 266 268 269 269 271 272 273 278 282 278 271 269 270 272 274 276 276 276 276 277 280 283 283 283 283 284 285 285 285 283 279 275 273 271 269 267 267 268 270 272 277 279 280 290 305 305 301 293 282 277 291 304 309
171 171 169 172 178 181 180 181 182 180 185 192 203 218 225 223 227 233 235 237 243 249 251 254 256 257 259 261 263 264 268 270 271 273 274 277 278 277 276 279 282 280 279 280 280 282 283 282 281 280 279 279 280 280 281 282 283 284 284 283 282 279 276 271 265 260 259 260 262 264 265 270 276 277 281 291 296 296 294 283 267 275 299 310 315
170 169 169 172 178 185 187 189 192 193 194 198 209 223 226 223 226 230 232 233 236 240 245 247 251 260 266 266 265 265 267 271 274 276 278 281 280 277 279 287 288 284 283 284 286 288 288 286 285 285 284 285 284 283 284 284 281 279 278 277 275 275 273 269 261 256 255 256 259 261 265 270 273 276 282 286 288 294 292 268 245 274 308 314 317
177 173 171 173 178 187 193 196 199 201 202 206 216 224 223 221 223 226 231 235 235 239 243 241 243 252 262 267 269 268 267 270 273 275 278 278 276 281 292 300 298 290 286 287 287 285 284 285 287 287 287 286 284 282 281 279 275 273 271 268 266 267 269 266 259 254 254 255 258 260 263 267 269 273 280 280 280 288 291 266 242 272 303 315 316
184 183 180 179 181 189 198 201 202 205 205 207 219 231 231 228 228 228 231 231 230 235 243 246 245 252 262 271 278 280 280 281 280 279 280 280 285 293 297 299 297 293 290 289 286 283 283 284 284 284 283 281 279 277 276 274 273 271 269 267 264 262 260 254 248 248 252 255 257 257 257 261 265 265 269 273 274 278 281 269 253 262 285 299 295
189 186 183 184 188 195 202 203 204 208 208 205 210 229 242 246 249 249 247 243 235 235 242 244 244 250 260 269 276 279 280 280 277 277 279 282 287 292 295 295 295 292 289 288 286 285 285 283 282 281 279 277 276 275 273 273 272 269 268 266 263 261 259 253 247 249 252 253 253 252 251 253 255 254 255 263 272 277 275 269 264 265 267 270 271
188 181 181 189 196 201 208 208 201 201 205 205 207 218 231 242 252 256 256 256 258 257 257 255 252 253 261 267 270 270 270 271 273 277 281 285 288 289 290 291 291 290 289 288 286 284 281 278 277 276 275 275 276 276 276 277 276 274 270 262 253 254 261 259 253 250 248 248 248 248 248 248 248 248 248 252 264 272 272 272 275 269 255 252 269
183 178 186 199 204 205 212 214 197 189 195 206 220 231 232 231 240 247 248 249 255 261 265 267 266 266 269 271 271 272 273 275 278 281 284 287 288 288 288 289 289 289 289 288 285 283 280 275 273 274 274 274 274 276 277 277 276 276 274 266 258 259 263 263 262 260 256 253 249 246 246 248 249 250 248 246 253 263 265 267 272 268 255 248 262
183 185 196 208 210 203 204 201 181 183 192 200 216 234 243 241 242 244 238 235 243 253 258 261 264 267 269 270 271 273 276 279 283 285 286 287 288 289 288 288 287 287 287 286 284 282 281 277 273 273 273 273 273 274 276 276 276 276 273 270 271 271 265 260 265 270 266 259 253 248 247 248 250 254 253 247 246 254 262 265 266 264 261 254 246
191 196 201 200 191 184 192 200 205 209 210 208 209 219 232 244 254 261 257 247 246 250 253 256 262 266 271 273 273 274 277 280 283 285 287 288 289 288 287 286 285 284 283 282 279 278 278 277 274 274 273 272 272 273 274 275 276 275 272 271 272 273 271 270 271 272 267 261 258 257 254 251 251 255 257 253 246 245 252 262 266 265 263 255 240
207 209 200 186 174 167 181 213 231 230 224 227 231 230 233 241 246 254 262 262 261 261 261 263 268 271 274 277 276 275 277 281 284 287 288 287 285 284 284 284 283 282 280 279 278 276 275 274 273 273 273 271 270 271 272 274 277 278 280 279 276 274 283 289 287 279 269 260 255 254 253 249 249 252 255 256 252 244 243 254 267 273 273 265 253
212 204 183 178 179 178 185 203 225 233 224 224 235 239 242 246 245 244 245 245 249 258 264 267 271 274 275 278 282 283 283 285 287 288 287 283 281 281 281 280 279 278 276 274 274 274 275 276 276 278 279 280 282 284 284 284 285 288 290 288 281 278 283 286 285 282 276 268 263 260 256 249 246 247 250 252 251 248 247 250 256 264 270 266 251
200 185 173 180 194 209 209 206 216 225 222 221 230 233 236 243 247 251 258 262 264 271 276 280 285 288 288 291 296 297 293 291 290 288 284 281 279 278 278 278 277 275 275 276 278 281 284 286 284 283 283 285 288 290 289 286 285 287 287 283 278 277 277 275 274 275 275 271 265 261 258 252 248 247 250 252 250 248 248 247 247 254 265 265 248
191 194 189 183 186 202 226 224 222 226 224 224 234 238 240 245 249 253 264 272 276 278 280 282 287 292 294 296 298 298 297 296 290 284 281 281 281 283 286 287 285 283 284 286 285 284 285 286 285 283 284 287 289 290 290 289 288 289 289 285 277 274 275 272 269 270 272 270 260 252 253 261 262 257 253 255 256 250 245 246 247 251 262 268 250
197 214 209 181 178 191 214 222 220 224 227 229 233 236 238 245 253 258 262 267 270 273 276 280 286 290 293 296 297 298 300 297 289 286 290 296 300 304 306 301 294 289 286 284 281 279 279 282 286 289 292 294 294 292 291 293 295 297 296 289 279 276 277 276 274 273 275 274 267 259 255 258 260 257 254 257 262 257 248 246 247 249 258 267 257
196 212 214 199 190 196 215 226 225 224 227 230 234 237 239 243 250 257 263 268 272 276 281 286 290 291 292 295 296 295 294 292 293 302 313 315 312 311 308 302 296 293 289 286 287 288 286 285 289 293 295 294 292 291 292 295 299 302 300 293 288 289 289 287 285 281 276 274 273 269 261 255 253 253 252 250 254 257 253 247 245 245 249 255 259
199 210 210 209 208 206 215 231 239 237 235 237 239 241 246 250 254 259 266 272 277 284 291 293 293 293 294 296 297 298 298 298 302 308 310 307 305 306 306 304 302 299 296 294 297 299 298 298 300 303 302 298 296 297 299 299 300 304 304 299 296 295 291 288 287 281 276 276 276 270 263 261 259 257 251 246 247 255 257 250 244 245 246 245 249
212 217 205 201 206 211 216 224 233 238 243 248 250 250 253 259 263 267 273 276 281 287 290 290 291 292 293 295 301 309 313 311 308 307 307 305 306 310 312 311 308 305 304 305 308 310 309 311 314 314 312 310 309 309 308 305 305 309 309 304 299 295 289 289 291 289 286 287 284 273 266 268 267 261 256 253 251 254 256 250 241 240 244 243 243
215 217 200 191 195 204 214 224 231 236 239 243 248 252 257 262 266 270 275 279 284 288 287 287 291 298 303 308 316 321 318 308 303 308 313 311 310 315 321 320 315 311 308 309 313 314 311 310 313 315 315 316 316 314 313 312 313 318 319 314 309 304 301 303 308 310 306 299 291 281 275 270 264 260 260 259 256 256 261 263 257 246 240 238 241
212 217 210 199 194 195 203 219 231 238 243 245 248 251 254 260 265 269 273 276 279 280 282 287 300 318 324 327 328 327 322 309 305 312 316 312 310 316 325 327 322 316 311 311 315 317 315 316 318 318 318 322 323 322 322 326 332 338 339 338 335 333 331 332 334 334 330 322 309 300 290 276 265 262 264 264 261 255 253 256 260 257 246 237 237
208 214 220 220 211 206 211 218 224 234 247 254 256 258 258 258 260 262 268 274 278 280 287 306 326 331 328 326 325 325 323 314 309 313 317 318 318 320 322 322 320 319 321 326 331 331 332 336 337 335 337 342 343 340 339 346 356 1 360 359 359 356 354 354 351 343 336 333 332 328 319 305 290 282 277 272 271 266 257 253 254 254 250 246 241
217 217 226 233 228 223 227 226 221 225 235 244 253 261 263 262 263 264 267 278 295 315 331 334 332 329 327 323 321 326 326 319 309 310 316 322 325 324 322 325 330 334 339 347 354 356 356 358 357 354 354 356 356 356 358 5 14 18 17 13 10 5 0 356 349 339 331 329 328 325 323 319 314 306 297 285 275 272 272 270 265 257 250 247 245
224 221 224 231 231 230 233 232 228 233 242 248 254 259 261 263 268 271 272 293 328 331 327 322 319 319 321 321 325 330 328 316 307 310 317 322 328 333 338 345 353 356 355 357 1 3 1 360 0 359 356 354 358 8 16 20 21 17 14 11 10 7 2 356 350 343 338 336 332 324 319 316 311 307 305 301 293 283 275 272 269 262 253 248 248
223 223 225 231 236 236 234 233 233 236 240 243 247 252 256 263 271 283 301 310 311 314 317 316 314 315 318 319 323 328 324 317 318 326 332 336 343 348 353 0 5 2 357 356 357 358 359 2 1 356 354 359 19 24 20 19 17 10 4 2 1 358 353 349 345 341 338 338 335 331 324 318 312 309 307 305 304 300 291 279 272 265 256 252 251
226 231 229 228 235 242 246 249 248 242 241 246 246 243 245 269 327 338 323 313 311 317 321 316 308 309 313 317 323 329 331 332 335 340 345 351 355 357 1 6 4 359 354 354 356 358 3 6 2 0 9 50 67 35 15 10 9 5 360 356 352 346 340 338 337 334 330 327 324 323 321 318 316 316 314 308 306 307 305 298 289 280 270 260 253
231 239 242 240 243 245 246 249 252 253 258 267 277 13 41 357 340 327 314 309 312 319 314 305 304 312 322 331 339 341 340 340 341 345 351 354 353 355 359 1 358 355 354 356 359 2 3 2 2 8 29 58 46 21 9 5 4 3 360 355 350 344 340 338 337 335 332 326 320 317 317 316 314 314 313 309 306 306 306 305 301 295 291 281 265
233 241 250 255 261 265 264 265 271 281 313 16 31 19 350 336 341 337 316 300 295 301 303 306 322 340 347 349 348 346 346 349 354 357 358 355 353 356 359 357 355 356 359 1 1 2 1 1 4 15 36 47 35 19 11 9 7 3 359 357 355 352 351 350 349 348 346 340 329 319 315 315 315 315 313 309 305 302 301 301 301 298 297 295 287